Tracking 31027 objects as of 19-Jul-2025
HD Live streaming from Space Station
objects crossing your sky now

MOLNIYA 1-S

Track MOLNIYA 1-S now!
MOLNIYA 1-S is classified as:


NORAD ID: 7392
Int'l Code: 1974-060A
Perigee: 35,747.3 km
Apogee: 35,826.3 km
Inclination: 2.2 °
Period: 1,435.7 minutes
Semi major axis: 42157 km
RCS: 1.5848 m2 (large)
Launch date: July 29, 1974
Source: Commonwealth of Independent States (former USSR) (CIS)
Launch site: TYURATAM MISSILE AND SPACE COMPLEX (TTMTR)
Your satellite tracking list
IRIDIUM 106
Track 1 satellite(s)




NASA's NSSDC Master Catalog

Two Line Element Set (TLE):
1 07392U 74060A   25199.56541157  .00000150  00000-0  00000-0 0  9994
2 07392   2.2237 261.8987 0009369 260.3897  21.2819  1.00296620130825
Source of the keplerian elements: AFSPC